Lihue, HI

3:50 AM HST on April 30, 2017 (GMT -1000)
Lihue

Weather History for PHLI - November, 2012

Change the Weather History Date:

Wednesday, November 28, 2012

  Actual Average Record
Temperature  
Mean Temperature 74 °F 75 °F  
Max Temperature 80 °F 80 °F 86 °F (1980)
Min Temperature 68 °F 70 °F 61 °F (1972)
Degree Days  
Heating Degree Days 0 0  
Month to date heating degree days 0 0  
Since 1 July heating degree days 0 0  
Cooling Degree Days 9 10  
Month to date cooling degree days 337 306  
Year to date cooling degree days 3824 3673  
Growing Degree Days 24 (Base 50)    
Moisture  
Dew Point 61 °F    
Average Humidity 68    
Maximum Humidity 84    
Minimum Humidity 52    
Precipitation  
Precipitation 0.07 in 0.15 in 5.02 in (1954)
Month to date precipitation 0.58 4.15  
Year to date precipitation 36.81 31.54  
Snow  
Snow 0.00 in - - ()
Month to date snowfall 0.0  
Since 1 July snowfall 0.0  
Since 1 September snowfall 0.0  
Snow Depth 0.00 in    
Sea Level Pressure  
Sea Level Pressure 30.04 in    
Wind  
Wind Speed 8 mph (NE)    
Max Wind Speed 22 mph    
Max Gust Speed 26 mph    
Visibility 10 miles    
Events Rain    
T = Trace of Precipitation, MM = Missing Value Source: NWS Daily Summary

Daily Weather History Graph

Daily Weather History Graph

Search for Another Location

Airport or City:

Trip Planner

Search our weather history database for the weather conditions in past years. The results will help you decide how hot, cold, wet, or windy it might be!

Date:

Astronomy

Nov. 28, 2012 Rise Set
Actual Time 6:58 AM HST 5:52 PM HST
Civil Twilight 6:34 AM HST 6:16 PM HST
Nautical Twilight 6:06 AM HST 6:44 PM HST
Astronomical Twilight 5:39 AM HST 7:11 PM HST
Moon 6:17 PM HST (11/28) 7:05 AM HST (11/28)
Length of Visible Light 11h 42m
Length of Day
10h 54m
Full, 100% of the Moon is Illuminated
Nov 28
Full
Dec 6
Last Quarter
Dec 12
New
Dec 19
First Quarter
Dec 28
Full

Hourly Weather History & Observations

Time (HST) Temp. Dew Point Humidity Pressure Visibility Wind Dir Wind Speed Gust Speed Precip Events Conditions
12:53 AM 70.0 °F 64.0 °F 81% 30.09 in 10.0 mi NE 10.4 mph - 0.04 in   Overcast
1:53 AM 72.0 °F 60.1 °F 66% 30.07 in 10.0 mi ENE 10.4 mph - 0.00 in   Overcast
2:53 AM 72.0 °F 60.1 °F 66% 30.05 in 10.0 mi ENE 9.2 mph - N/A   Scattered Clouds
3:48 AM 69.8 °F 64.4 °F 83% 30.05 in 5.0 mi NE 8.1 mph - 0.03 in Rain Light Rain
3:53 AM 70.0 °F 64.9 °F 84% 30.04 in 9.0 mi ENE 13.8 mph 18.4 mph 0.03 in Rain Light Rain
4:53 AM 71.1 °F 61.0 °F 70% 30.04 in 10.0 mi NE 11.5 mph - 0.00 in   Overcast
5:53 AM 71.1 °F 61.0 °F 70% 30.05 in 10.0 mi NE 12.7 mph - N/A   Mostly Cloudy
6:53 AM 70.0 °F 63.0 °F 78% 30.07 in 10.0 mi NE 13.8 mph - 0.00 in   Overcast
7:53 AM 70.0 °F 61.0 °F 73% 30.08 in 10.0 mi NW 4.6 mph - N/A   Overcast
8:53 AM 70.0 °F 63.0 °F 78% 30.09 in 10.0 mi NW 5.8 mph - 0.00 in Rain Light Rain
9:53 AM 72.0 °F 63.0 °F 73% 30.10 in 10.0 mi West 6.9 mph - 0.00 in   Mostly Cloudy
10:53 AM 77.0 °F 61.0 °F 58% 30.08 in 10.0 mi Calm Calm - N/A   Scattered Clouds
11:53 AM 79.0 °F 61.0 °F 54% 30.06 in 10.0 mi East 10.4 mph - N/A   Mostly Cloudy
12:53 PM 79.0 °F 61.0 °F 54% 30.03 in 10.0 mi East 9.2 mph - N/A   Clear
1:22 PM 78.8 °F 59.0 °F 51% 30.02 in 10.0 mi East 10.4 mph - N/A   Partly Cloudy
1:53 PM 79.0 °F 61.0 °F 54% 29.99 in 10.0 mi East 9.2 mph - N/A   Clear
2:53 PM 79.0 °F 59.0 °F 50% 29.98 in 10.0 mi East 8.1 mph - N/A   Partly Cloudy
3:53 PM 78.1 °F 60.1 °F 54% 29.98 in 10.0 mi East 8.1 mph - N/A   Clear
4:53 PM 75.9 °F 60.1 °F 58% 29.98 in 10.0 mi ENE 6.9 mph - N/A   Partly Cloudy
5:53 PM 73.9 °F 61.0 °F 64% 30.00 in 10.0 mi NE 5.8 mph - N/A   Clear
6:53 PM 73.9 °F 62.1 °F 66% 30.02 in 10.0 mi ENE 6.9 mph - N/A   Mostly Cloudy
7:53 PM 72.0 °F 61.0 °F 68% 30.05 in 10.0 mi Calm Calm - N/A   Overcast
8:53 PM 70.0 °F 61.0 °F 73% 30.05 in 10.0 mi WSW 6.9 mph - N/A   Scattered Clouds
9:53 PM 69.1 °F 61.0 °F 75% 30.05 in 10.0 mi WNW 6.9 mph - N/A   Partly Cloudy
10:53 PM 69.1 °F 61.0 °F 75% 30.06 in 10.0 mi West 5.8 mph - N/A   Mostly Cloudy
11:53 PM 70.0 °F 62.1 °F 76% 30.05 in 10.0 mi West 8.1 mph - N/A   Mostly Cloudy